[[{"header":{"parameterUnit":"m.s-1","parameterCategory":1,"la1":30.2991,"la2":30.254,"lo1":-89.0895,"lo2":-89.0444,"dy":0.0017,"dx":0.0017,"nx":28,"ny":28,"refTime":"2025-01-22T09:00:00:Z","depth":0,"parameterNumber":2,"parameterNumberName":"U-component_of_WINDS"},"data":[0,0,0,0,0,0,0,0,0,0,0,0,0,0,0,0,0,0,0,0,0,0,0,0,0,0,0,0,0,0,0,0,0,0,0,0,0,0,0,0,0,0,0,0,0,0,0,0,0,0,0,0,0,0,0,0,0,0,0.8638,0.8638,0,0.8606,0.8606,0.8606,0.8609,0.861,0.861,0.8611,0.8576,0.8574,0.8573,0,0,0,0,0,0,0,0,0,0,0,0,0,0.8699,0.8698,0.8638,0.8637,0.8637,0.8606,0.8606,0.8606,0.8609,0.861,0.861,0.8611,0.8576,0.8575,0.8573,0,0,0,0,0,0,0,0,0,0,0,0,0,0.867,0.8697,0.8638,0.8635,0.8635,0.8606,0.8606,0.8605,0.8609,0.861,0.861,0.8611,0.8577,0.8575,0.8573,0.8544,0,0,0.8566,0.8565,0,0,0,0,0,0,0,0,0.8672,0.8668,0.8636,0.8635,0.8635,0.8613,0.8615,0.8585,0.8609,0.8619,0.8611,0.8612,0.8587,0.8584,0.8577,0.8543,0.8541,0.8566,0.8565,0.8564,0.8563,0,0,0,0,0,0,0,0.8674,0.8669,0.8625,0.8636,0.8635,0.8635,0.8632,0.8609,0.8599,0.8618,0.8618,0.8614,0.8587,0.8579,0.8576,0.8541,0.8566,0.8564,0.8563,0.8562,0.8481,0.8481,0,0,0,0,0,0,0.8677,0.8671,0.8626,0.8624,0.8656,0.8633,0.863,0.8619,0.8599,0.8597,0.8614,0.8615,0.8582,0.8578,0.8575,0.8539,0.8564,0.8562,0.8561,0.8482,0.8481,0.848,0,0,0,0,0,0,0.8678,0.8673,0.8628,0.8648,0.8642,0.8631,0.8619,0.8618,0.8609,0.8596,0.8594,0.8607,0.8582,0.8578,0.8552,0.8538,0.8561,0.8559,0.8483,0.8482,0.8481,0.8469,0,0,0,0,0,0,0.868,0.8673,0.8663,0.8648,0.8641,0.8606,0.8618,0.8617,0.8606,0.8607,0.8589,0.8587,0.8583,0.8555,0.855,0.8536,0.8557,0.8484,0.8483,0.8481,0.847,0.8467,0.8464,0,0,0,0,0,0.8682,0.866,0.8662,0.8657,0.8628,0.8605,0.8601,0.8597,0.8605,0.8594,0.8586,0.8588,0.8541,0.8552,0.8547,0.8531,0.8485,0.8483,0.8481,0.8471,0.8468,0.8464,0,0,0,0,0,0,0.8673,0.8658,0.866,0.8633,0.862,0.8606,0.8592,0.8593,0.8577,0.8579,0.8574,0.857,0.8543,0.8535,0.8548,0.8503,0.8514,0.8511,0.8509,0.8505,0.8502,0.8503,0.8556,0,0,0,0,0,0.8669,0.8652,0.864,0.8617,0.861,0.8602,0.8592,0.859,0.8576,0.8571,0.856,0.8546,0.8528,0.8517,0.8499,0.847,0.8465,0.8457,0.8454,0.8451,0.8448,0.843,0.8426,0.8474,0.8474,0.8474,0,0,0.8658,0.8647,0.8637,0.8615,0.8605,0.8587,0.8598,0.8578,0.8565,0.8568,0.8542,0.8535,0.8519,0.8491,0.8478,0.8483,0.8434,0.8449,0.8447,0.8445,0.8428,0.8423,0.8419,0.8472,0.8473,0.8473,0,0,0.8628,0.862,0.8599,0.8589,0.8574,0.8569,0.8564,0.855,0.8545,0.852,0.8521,0.8505,0.8475,0.8463,0.8453,0.842,0.8421,0.8415,0.8399,0.8382,0.8378,0.8375,0.8361,0.8357,0.8412,0.8412,0.8412,0,0.8616,0.859,0.8588,0.8569,0.8558,0.8562,0.854,0.853,0.851,0.8503,0.8509,0.8471,0.8461,0.8429,0.8421,0.8414,0.8407,0.8416,0.8379,0.8375,0.8372,0.8359,0.8354,0.8411,0.8411,0.8411,0.8411,0,0.8575,0.8557,0.8542,0.8523,0.8512,0.8491,0.8486,0.8474,0.8473,0.8467,0.8442,0.843,0.841,0.8403,0.8402,0.8371,0.8374,0.838,0.8391,0.8367,0.8354,0.835,0.841,0.841,0.841,0.8411,0,0,0.8537,0.8519,0.8513,0.8504,0.8489,0.8474,0.8454,0.8435,0.8424,0.8411,0.8393,0.8368,0.8373,0.8362,0.836,0.8345,0.8318,0.8353,0.8352,0.8345,0.8282,0.8276,0.827,0.832,0.8319,0.8318,0.8282,0,0.8505,0.8469,0.8468,0.8435,0.8417,0.8421,0.8403,0.8391,0.8386,0.8369,0.8363,0.8344,0.8354,0.8347,0.8333,0.8324,0.8305,0.8327,0.8301,0.83,0.8303,0.8264,0.8258,0.8224,0.8278,0.8277,0.8277,0,0.8462,0.8447,0.8413,0.84,0.8392,0.8376,0.8359,0.8344,0.8331,0.8327,0.8315,0.8316,0.8294,0.8308,0.8277,0.8292,0.8282,0.8276,0.8275,0.827,0.8285,0.8256,0.8214,0.8208,0.8269,0.827,0.827,0,0.8435,0.8407,0.8383,0.8376,0.836,0.8348,0.8341,0.8329,0.8318,0.8303,0.8295,0.8278,0.8267,0.8254,0.8249,0.826,0.8218,0.8231,0.8213,0.8213,0.8202,0.8202,0.8154,0.8199,0.8199,0.8199,0.82,0,0.8397,0.8376,0.8371,0.8355,0.8331,0.833,0.8305,0.8299,0.8288,0.8271,0.8274,0.8257,0.8253,0.8236,0.8233,0.8207,0.8203,0.8198,0.8197,0.8197,0.8197,0.8188,0.8189,0.8198,0.8198,0.8199,0.8199,0,0.8362,0.8358,0.8331,0.8319,0.8316,0.8298,0.8287,0.8272,0.8268,0.8246,0.8241,0.8233,0.8213,0.8208,0.8184,0.8182,0.815,0.8153,0.8155,0.8154,0.8135,0.8136,0.8078,0.8069,0.8122,0.8122,0.8121,0,0.8337,0.832,0.8307,0.8296,0.8288,0.8271,0.826,0.8258,0.8246,0.823,0.8216,0.8197,0.8181,0.8149,0.8141,0.8122,0.8122,0.8104,0.8119,0.8119,0.8119,0.8119,0.8117,0.8099,0.8099,0.8098,0.8098,0,0.8292,0.8291,0.8275,0.8259,0.8246,0.8232,0.822,0.8211,0.8207,0.8193,0.8173,0.8161,0.8137,0.8117,0.8099,0.8091,0.8093,0.8094,0.8088,0.8086,0.8087,0.8084,0.8144,0.8094,0.8095,0.8095,0.8095,0.8095,0.8259,0.8244,0.8232,0.8215,0.8205,0.8193,0.8178,0.8173,0.8156,0.8136,0.8137,0.8115,0.8102,0.8077,0.8068,0.805,0.8056,0.8048,0.8046,0.8043,0.804,0.8092,0.8047,0.8047,0.8048,0.8048,0.8048,0,0.8213,0.8205,0.8189,0.8172,0.8157,0.8163,0.815,0.8137,0.8117,0.8106,0.809,0.8067,0.8048,0.8039,0.802,0.8007,0.8008,0.8002,0.8002,0.7999,0.8038,0.8043,0.8002,0.8002,0.8002,0.8002,0.8002,0.8002,0.8186,0.8161,0.8159,0.8129,0.8122,0.81,0.8092,0.8081,0.8071,0.8045,0.803,0.8025,0.8013,0.7994,0.7976,0.7974,0.7966,0.7959,0.7957,0.7992,0.7997,0.8001,0.8006,0.7958,0.7958,0.792,0.792,0.792]},{"header":{"parameterUnit":"m.s-1","parameterCategory":1,"la1":30.2991,"la2":30.254,"lo1":-89.0895,"lo2":-89.0444,"dy":0.0017,"dx":0.0017,"nx":28,"ny":28,"refTime":"2025-01-22T09:00:00:Z","depth":0,"parameterNumber":3,"parameterNumberName":"V-component_of_WINDS"},"data":[0,0,0,0,0,0,0,0,0,0,0,0,0,0,0,0,0,0,0,0,0,0,0,0,0,0,0,0,0,0,0,0,0,0,0,0,0,0,0,0,0,0,0,0,0,0,0,0,0,0,0,0,0,0,0,0,0,0,-5.675,-5.6752,0,-5.6936,-5.6938,-5.694,-5.6857,-5.6852,-5.6848,-5.6843,-5.7027,-5.7036,-5.7045,0,0,0,0,0,0,0,0,0,0,0,0,0,-5.6319,-5.6328,-5.675,-5.6753,-5.6755,-5.6935,-5.6938,-5.694,-5.6858,-5.6852,-5.6846,-5.6841,-5.7024,-5.7035,-5.7046,0,0,0,0,0,0,0,0,0,0,0,0,0,-5.6506,-5.633,-5.675,-5.6735,-5.6736,-5.6935,-5.6938,-5.6941,-5.6859,-5.6852,-5.6845,-5.6839,-5.7021,-5.7034,-5.7048,-5.727,0,0,-5.709,-5.7096,0,0,0,0,0,0,0,0,-5.6495,-5.6522,-5.6735,-5.6737,-5.6738,-5.6866,-5.6853,-5.7051,-5.686,-5.6812,-5.6843,-5.6835,-5.6979,-5.6996,-5.7045,-5.7278,-5.7286,-5.7091,-5.7099,-5.7105,-5.7109,0,0,0,0,0,0,0,-5.6482,-5.6513,-5.6823,-5.6738,-5.674,-5.6718,-5.6737,-5.689,-5.6931,-5.6816,-5.681,-5.6833,-5.6978,-5.7032,-5.7049,-5.7289,-5.7091,-5.7103,-5.7111,-5.7117,-5.7714,-5.7721,0,0,0,0,0,0,-5.647,-5.6503,-5.6817,-5.6829,-5.6597,-5.6731,-5.6752,-5.6832,-5.693,-5.6938,-5.6839,-5.6829,-5.7012,-5.7033,-5.7055,-5.7323,-5.7105,-5.7118,-5.7126,-5.7707,-5.7716,-5.7724,0,0,0,0,0,0,-5.6461,-5.6499,-5.681,-5.6665,-5.6702,-5.6746,-5.6836,-5.6839,-5.6893,-5.6947,-5.6954,-5.6887,-5.7008,-5.7036,-5.7218,-5.7328,-5.7124,-5.7137,-5.7698,-5.7709,-5.772,-5.786,0,0,0,0,0,0,-5.6449,-5.6497,-5.6583,-5.6667,-5.6711,-5.6972,-5.6843,-5.6848,-5.6918,-5.6906,-5.6994,-5.7002,-5.7004,-5.7198,-5.7231,-5.7344,-5.7147,-5.7688,-5.7703,-5.7716,-5.7846,-5.7875,-5.79,0,0,0,0,0,-5.6434,-5.6613,-5.6588,-5.6626,-5.682,-5.6978,-5.7003,-5.7003,-5.6927,-5.7013,-5.7048,-5.6999,-5.731,-5.7217,-5.7254,-5.7372,-5.7681,-5.7699,-5.7715,-5.7834,-5.7869,-5.7899,0,0,0,0,0,0,-5.6539,-5.6624,-5.6597,-5.6809,-5.6887,-5.6964,-5.7073,-5.7041,-5.7141,-5.7126,-5.712,-5.7141,-5.7329,-5.7368,-5.7263,-5.7592,-5.7484,-5.7509,-5.7561,-5.7595,-5.7622,-5.7609,-5.7159,0,0,0,0,0,-5.6587,-5.6711,-5.6777,-5.6958,-5.6999,-5.703,-5.7098,-5.7092,-5.7172,-5.7205,-5.7253,-5.7331,-5.7446,-5.7522,-5.7631,-5.785,-5.7868,-5.7949,-5.7976,-5.7998,-5.8021,-5.814,-5.8178,-5.778,-5.778,-5.778,0,0,-5.6687,-5.6749,-5.6827,-5.698,-5.7041,-5.7168,-5.7058,-5.7196,-5.729,-5.7225,-5.7401,-5.7439,-5.7525,-5.7727,-5.7818,-5.7766,-5.8134,-5.802,-5.8037,-5.8048,-5.8162,-5.8199,-5.8233,-5.7792,-5.779,-5.7788,0,0,-5.6935,-5.6994,-5.7151,-5.7214,-5.7307,-5.7326,-5.7364,-5.7447,-5.747,-5.7647,-5.7601,-5.7711,-5.7909,-5.7973,-5.8032,-5.8304,-5.8263,-5.8339,-5.8481,-5.8598,-5.8629,-5.8657,-5.8755,-5.8791,-5.8361,-5.8361,-5.8362,0,-5.7047,-5.7238,-5.7236,-5.738,-5.7448,-5.7397,-5.7556,-5.7616,-5.7739,-5.7787,-5.7726,-5.7975,-5.803,-5.8247,-5.8313,-5.8362,-5.8404,-5.833,-5.8625,-5.8653,-5.8679,-5.8772,-5.8809,-5.837,-5.8369,-5.8368,-5.8367,0,-5.7372,-5.7506,-5.7621,-5.7745,-5.7826,-5.7976,-5.7996,-5.8078,-5.8064,-5.8089,-5.8269,-5.8333,-5.8455,-5.8505,-5.8492,-5.872,-5.8685,-5.8625,-5.8516,-5.8725,-5.8814,-5.8849,-5.8383,-5.838,-5.8377,-5.8375,0,0,-5.7693,-5.7813,-5.7856,-5.7912,-5.801,-5.8113,-5.8259,-5.8381,-5.8452,-5.8538,-5.8661,-5.883,-5.8776,-5.8842,-5.8835,-5.8938,-5.9151,-5.8865,-5.8867,-5.8918,-5.9408,-5.9455,-5.9496,-5.9123,-5.913,-5.9136,-5.9401,0,-5.795,-5.8211,-5.8213,-5.8453,-5.8576,-5.8528,-5.8656,-5.873,-5.8757,-5.8864,-5.8892,-5.9014,-5.8931,-5.8971,-5.907,-5.9104,-5.925,-5.9085,-5.9238,-5.9244,-5.9221,-5.9542,-5.9592,-5.984,-5.9436,-5.9441,-5.9446,0,-5.8285,-5.8385,-5.8638,-5.872,-5.8771,-5.8887,-5.8998,-5.9101,-5.9183,-5.9195,-5.927,-5.9248,-5.9396,-5.9281,-5.9486,-5.9374,-5.9436,-5.9462,-5.9471,-5.9488,-5.9359,-5.9569,-5.9919,-5.9957,-5.95,-5.9495,-5.9491,0,-5.8496,-5.8693,-5.8871,-5.8919,-5.9018,-5.9101,-5.9146,-5.9221,-5.9294,-5.939,-5.9437,-5.9548,-5.9609,-5.9695,-5.9703,-5.9618,-5.9909,-5.9794,-5.9924,-5.9924,-5.9989,-5.9986,-6.0356,-6.0026,-6.0025,-6.0024,-6.0024,0,-5.8784,-5.8942,-5.8967,-5.9077,-5.9251,-5.925,-5.9422,-5.9459,-5.9526,-5.9641,-5.9604,-5.9712,-5.9715,-5.9825,-5.9831,-6.0,-6.0027,-6.0041,-6.0041,-6.0046,-6.0045,-6.0089,-6.0072,-6.0034,-6.0032,-6.003,-6.0029,0,-5.9051,-5.9074,-5.9265,-5.9344,-5.9367,-5.9492,-5.9558,-5.9662,-5.9685,-5.983,-5.9864,-5.99,-6.0028,-6.0044,-6.0191,-6.0195,-6.04,-6.038,-6.0374,-6.0371,-6.0501,-6.0489,-6.0914,-6.097,-6.0601,-6.0605,-6.0608,0,-5.9235,-5.9355,-5.9447,-5.9523,-5.9573,-5.9694,-5.9768,-5.9771,-5.985,-5.9953,-6.0044,-6.0168,-6.0268,-6.0473,-6.0511,-6.0624,-6.0609,-6.075,-6.0625,-6.0627,-6.0613,-6.0607,-6.062,-6.0774,-6.0778,-6.0782,-6.0784,0,-5.9559,-5.9565,-5.9675,-5.979,-5.9881,-5.9971,-6.0055,-6.0118,-6.0131,-6.0222,-6.0353,-6.0431,-6.0583,-6.0706,-6.0818,-6.0861,-6.0826,-6.0823,-6.0859,-6.0867,-6.0859,-6.0867,-6.0442,-6.0814,-6.0811,-6.0809,-6.0807,-6.0806,-5.9792,-5.9897,-5.9979,-6.0103,-6.0167,-6.0247,-6.0349,-6.0385,-6.0495,-6.0621,-6.0615,-6.076,-6.0837,-6.0984,-6.1035,-6.1147,-6.11,-6.1152,-6.1166,-6.118,-6.1194,-6.0839,-6.1167,-6.1166,-6.1165,-6.1165,-6.1164,0,-6.0116,-6.0166,-6.0281,-6.0401,-6.0499,-6.0457,-6.0549,-6.0633,-6.0761,-6.0838,-6.0937,-6.1088,-6.1207,-6.1255,-6.1372,-6.1452,-6.1439,-6.1483,-6.1478,-6.1489,-6.1228,-6.1186,-6.1492,-6.1492,-6.1492,-6.1492,-6.1492,-6.1492,-6.0297,-6.0473,-6.0489,-6.0696,-6.0744,-6.0888,-6.0943,-6.1017,-6.1078,-6.1249,-6.1349,-6.138,-6.1444,-6.1566,-6.1673,-6.1684,-6.1729,-6.1781,-6.1785,-6.154,-6.1507,-6.1476,-6.1437,-6.179,-6.1791,-6.2037,-6.204,-6.2041]}]]